Find Galaxy 19

NORAD ID: 33376 Int'l Des: 2008-045 Owner: INTELD Country: US operational
HEOCIRCULARGSOGEO

Live Position

Loading 3D Globe...

About Galaxy 19

Description loading...

Upcoming Passes

Passes for default location (London). Set your location on the main map for personalized predictions.

Altitude History

Loading altitude history...

Two-Line Element Set

1 33376U 08045A 26106.21086581 -.00000133 00000-0 00000-0 0 9993
2 33376 0.0189 250.3533 0002955 146.2415 146.6832 1.00272654 64284
Epoch: Apr 16, 2026 • Age: 12 hours

Current Status

Altitude 35775.1 km
Velocity 3.08 km/s
Sub-Earth Point 0.03°N, 97.02°W
Launch Date Sep 24, 2008
Age 17.5 years
Type other

Technical Details

Classification Payload
Mass 4640.00 kg
Dry Mass 2000.00 kg
Total Mass 4640.00 kg
Length 5.60 m
Diameter 2.80 m
Span 31.00 m
Shape Box + 2 Pan
Manufacturer LOR
Bus Type SSL-1300
Phase Status In Orbit
Owner/State INTELD/US

Most Searched